This is the latest recevied weather packets stored in our database for station/object N0QV. If no packets are shown the sender has not sent any weather packets the latest 10 day(s).
| Time | Temp. | Humidity | Pressure | Rain* | Wind** | Luminosity | Snow |
|---|---|---|---|---|---|---|---|
| 1778027253 | 10° C | 37% | 1011.6 hPa | 0 mm | - | 23 W/m² | - |
| 1778026949 | 10° C | 37% | 1011.9 hPa | 0 mm | - | 31 W/m² | - |
| 1778026645 | 10° C | 36% | 1011.5 hPa | 0 mm | - | 43 W/m² | - |
| 1778026343 | 10° C | 35% | 1011.6 hPa | 0 mm | - | 54 W/m² | - |
| 1778026040 | 10° C | 34% | 1011.5 hPa | 0 mm | - | 55 W/m² | - |
| 1778025737 | 10.56° C | 35% | 1011.6 hPa | 0 mm | - | 44 W/m² | - |
| 1778025435 | 10.56° C | 34% | 1011.6 hPa | 0 mm | - | 47 W/m² | - |
| 1778025133 | 10.56° C | 35% | 1011.4 hPa | 0 mm | - | 58 W/m² | - |
| 1778024829 | 10.56° C | 35% | 1011.3 hPa | 0 mm | - | 63 W/m² | - |
| 1778024526 | 10.56° C | 34% | 1011.6 hPa | 0 mm | - | 70 W/m² | - |
| 1778024223 | 10.56° C | 34% | 1011.5 hPa | 0 mm | - | 69 W/m² | - |
| 1778023921 | 10.56° C | 34% | 1011.4 hPa | 0 mm | - | 67 W/m² | - |
| 1778023618 | 10.56° C | 34% | 1011.3 hPa | 0 mm | - | 67 W/m² | - |
| 1778023315 | 10.56° C | 34% | 1011.5 hPa | 0 mm | - | 71 W/m² | - |
| 1778023012 | 10.56° C | 35% | 1011.1 hPa | 0 mm | - | 85 W/m² | - |
| 1778022711 | 10.56° C | 36% | 1011.2 hPa | 0 mm | - | 71 W/m² | - |
| 1778022409 | 10.56° C | 35% | 1011.2 hPa | 0 mm | - | 80 W/m² | - |
| 1778022105 | 10.56° C | 34% | 1011.2 hPa | 0 mm | - | 95 W/m² | - |
| 1778021801 | 10.56° C | 36% | 1011.2 hPa | 0 mm | - | 77 W/m² | - |
| 1778021497 | 11.11° C | 35% | 1011.2 hPa | 0 mm | - | 71 W/m² | - |
| 1778021194 | 11.11° C | 34% | 1011.3 hPa | 0 mm | - | 105 W/m² | - |
| 1778020892 | 11.11° C | 34% | 1011.1 hPa | 0 mm | - | 139 W/m² | - |
| 1778020589 | 11.67° C | 34% | 1011.2 hPa | 0 mm | - | 150 W/m² | - |
| 1778020285 | 11.67° C | 33% | 1011.1 hPa | 0 mm | - | 343 W/m² | - |
| 1778019981 | 11.67° C | 34% | 1011 hPa | 0 mm | - | 140 W/m² | - |
* Rain latest hour (hover to see other rain measurements)
** Current wind speed in m/s (hover to see current wind gust speed)